Location: Doverdale
(52.2833°N, 2.2000°W)
Time: 03:41:05
(UTC+00:00)

NOSS 3-4 (C) - Pass Details

Date: 29 October 2020
Orbit: 886 x 1326 km, 63.4° (Epoch: 06 November)

Event Time Altitude Azimuth Distance (km) Brightness Sun altitude
Rises 17:50:27 0° 309° (NW) 3,707 7.2 -10.6°
Reaches altitude 10° 17:53:01 10° 314° (NW) 2,812 6.4 -10.9°
Maximum altitude 17:59:31 51° 31° (NNE) 1,355 4.0 -11.9°
Enters shadow 18:05:43 14° 104° (ESE) 2,775 5.3 -12.9°
